When you browse on this site, cookies collect data to enhance your experience and personalize the content and advertising you see.
Visit our Privacy Policy to learn more. By continuing to use the site, you agree to this use of cookies and data.
  • In Deutschland
  • Länderverzeichnis
  • Für 7 Tage
  • Wassertemperatur
  • Wetterkarte
  • Widgets
  • user-avatar
    Anmelden

    Stündliche Wetter Skatinskoe

    Heute, 19 Februar, Mittwoch

    Zeit Temperatur Niederschläge Wind Luftdruck Luftfeuchtigkeit
    00:00 -7°C° 0 mm 5 m/S 748 mmHg 88%
    01:00 -7°C° 0 mm 5 m/S 748 mmHg 89%
    02:00 -6°C° 0 mm 5 m/S 748 mmHg 90%
    03:00 -5°C° 0 mm 6 m/S 748 mmHg 91%
    04:00 -5°C° 0 mm 5 m/S 748 mmHg 88%
    05:00 -4°C° 0 mm 5 m/S 748 mmHg 89%
    06:00 -4°C° 0 mm 5 m/S 748 mmHg 90%
    07:00 -2°C° 0 mm 5 m/S 748 mmHg 90%
    08:00 -3°C° 0 mm 6 m/S 748 mmHg 92%
    09:00 -2°C° 0 mm 6 m/S 749 mmHg 94%
    10:00 -2°C° 0 mm 6 m/S 749 mmHg 95%
    11:00 -2°C° 0 mm 6 m/S 749 mmHg 94%
    12:00 -2°C° 0 mm 6 m/S 749 mmHg 94%
    13:00 -1°C° 0 mm 5 m/S 749 mmHg 94%
    14:00 -1°C° 0 mm 5 m/S 750 mmHg 93%
    15:00 -1°C° 0 mm 5 m/S 750 mmHg 92%
    16:00 0°C° 0 mm 3 m/S 750 mmHg 95%
    17:00 -1°C° 0 mm 4 m/S 750 mmHg 96%
    18:00 -1°C° 0 mm 4 m/S 749 mmHg 97%
    19:00 -1°C° 0 mm 4 m/S 749 mmHg 98%
    20:00 -1°C° 0 mm 4 m/S 749 mmHg 97%
    21:00 -1°C° 0 mm 4 m/S 749 mmHg 97%
    22:00 -2°C° 0 mm 4 m/S 749 mmHg 96%
    23:00 -2°C° 0.1 mm 4 m/S 749 mmHg 96%

    Morgen, 20 Februar, Donnerstag

    Zeit Temperatur Niederschläge Wind Luftdruck Luftfeuchtigkeit
    00:00 -2°C° 0.1 mm 5 m/S 749 mmHg 95%
    01:00 -2°C° 0.1 mm 5 m/S 749 mmHg 95%
    02:00 -2°C° 0 mm 5 m/S 749 mmHg 93%
    03:00 -3°C° 0 mm 4 m/S 749 mmHg 92%
    04:00 -3°C° 0 mm 4 m/S 749 mmHg 90%
    05:00 -3°C° 0 mm 4 m/S 749 mmHg 90%
    06:00 -4°C° 0 mm 4 m/S 749 mmHg 91%
    07:00 -4°C° 0 mm 4 m/S 749 mmHg 92%
    08:00 -4°C° 0 mm 4 m/S 750 mmHg 91%
    09:00 -3°C° 0 mm 4 m/S 750 mmHg 91%
    10:00 -3°C° 0 mm 4 m/S 751 mmHg 91%
    11:00 -2°C° 0 mm 4 m/S 751 mmHg 92%
    12:00 -2°C° 0 mm 4 m/S 751 mmHg 93%
    13:00 -2°C° 0 mm 4 m/S 750 mmHg 95%
    14:00 -2°C° 0 mm 4 m/S 751 mmHg 93%
    15:00 -2°C° 0 mm 4 m/S 751 mmHg 92%
    16:00 -1°C° 0 mm 3 m/S 751 mmHg 91%
    17:00 -2°C° 0 mm 3 m/S 751 mmHg 91%
    18:00 -4°C° 0 mm 3 m/S 751 mmHg 91%
    19:00 -4°C° 0 mm 3 m/S 751 mmHg 91%
    20:00 -4°C° 0 mm 3 m/S 752 mmHg 91%
    21:00 -4°C° 0 mm 3 m/S 752 mmHg 91%
    22:00 -4°C° 0 mm 3 m/S 752 mmHg 91%
    23:00 -5°C° 0 mm 3 m/S 752 mmHg 91%

    übermorgen, 21 Februar, Freitag

    Zeit Temperatur Niederschläge Wind Luftdruck Luftfeuchtigkeit
    00:00 -5°C° 0 mm 3 m/S 752 mmHg 92%
    01:00 -6°C° 0 mm 3 m/S 752 mmHg 92%
    02:00 -6°C° 0 mm 3 m/S 752 mmHg 92%
    03:00 -6°C° 0 mm 3 m/S 753 mmHg 92%
    04:00 -6°C° 0 mm 3 m/S 753 mmHg 93%
    05:00 -7°C° 0 mm 3 m/S 753 mmHg 93%
    06:00 -7°C° 0 mm 3 m/S 753 mmHg 93%
    07:00 -8°C° 0 mm 3 m/S 753 mmHg 92%
    08:00 -7°C° 0 mm 3 m/S 754 mmHg 91%
    09:00 -5°C° 0 mm 4 m/S 754 mmHg 90%
    10:00 -4°C° 0 mm 4 m/S 754 mmHg 89%
    17:00 -1°C° 0 mm 3 m/S 756 mmHg 89%
    18:00 -1°C° 0 mm 3 m/S 757 mmHg 90%
    19:00 -1°C° 0 mm 2 m/S 757 mmHg 90%
    20:00 -2°C° 0 mm 2 m/S 757 mmHg 91%
    21:00 -2°C° 0 mm 2 m/S 758 mmHg 91%
    22:00 -2°C° 0 mm 2 m/S 758 mmHg 92%
    23:00 -2°C° 0 mm 2 m/S 758 mmHg 92%

    22 Februar, Samstag

    Zeit Temperatur Niederschläge Wind Luftdruck Luftfeuchtigkeit
    00:00 -2°C° 0 mm 2 m/S 758 mmHg 93%
    01:00 -3°C° 0 mm 2 m/S 759 mmHg 93%
    02:00 -3°C° 0 mm 2 m/S 759 mmHg 94%
    03:00 -3°C° 0 mm 2 m/S 759 mmHg 95%
    04:00 -4°C° 0 mm 2 m/S 759 mmHg 95%
    05:00 -5°C° 0 mm 2 m/S 760 mmHg 95%
    06:00 -5°C° 0 mm 2 m/S 760 mmHg 95%
    07:00 -6°C° 0 mm 2 m/S 760 mmHg 95%
    08:00 -6°C° 0 mm 2 m/S 761 mmHg 95%
    09:00 -5°C° 0 mm 2 m/S 761 mmHg 95%
    10:00 -5°C° 0 mm 2 m/S 761 mmHg 94%
    11:00 -4°C° 0 mm 2 m/S 761 mmHg 94%
    12:00 -1°C° 0 mm 1 m/S 761 mmHg 93%
    13:00 -1°C° 0 mm 1 m/S 762 mmHg 92%
    14:00 -1°C° 0 mm 1 m/S 762 mmHg 92%
    15:00 0°C° 0 mm 1 m/S 762 mmHg 93%
    16:00 0°C° 0 mm 1 m/S 762 mmHg 93%
    17:00 -1°C° 0 mm 1 m/S 762 mmHg 93%
    18:00 -2°C° 0 mm 1 m/S 762 mmHg 93%
    19:00 -2°C° 0 mm 1 m/S 762 mmHg 92%
    20:00 -3°C° 0 mm 1 m/S 762 mmHg 93%
    21:00 -4°C° 0 mm 1 m/S 763 mmHg 93%
    22:00 -6°C° 0 mm 2 m/S 763 mmHg 94%
    23:00 -6°C° 0 mm 2 m/S 763 mmHg 94%

    23 Februar, Sonntag

    Zeit Temperatur Niederschläge Wind Luftdruck Luftfeuchtigkeit
    00:00 -7°C° 0 mm 2 m/S 763 mmHg 95%
    01:00 -7°C° 0 mm 2 m/S 762 mmHg 95%
    02:00 -7°C° 0 mm 2 m/S 762 mmHg 95%
    03:00 -7°C° 0 mm 2 m/S 762 mmHg 95%
    04:00 -7°C° 0 mm 2 m/S 762 mmHg 95%
    05:00 -7°C° 0 mm 2 m/S 762 mmHg 95%
    06:00 -7°C° 0 mm 2 m/S 762 mmHg 94%
    07:00 -8°C° 0 mm 3 m/S 762 mmHg 94%
    08:00 -8°C° 0 mm 3 m/S 762 mmHg 94%
    09:00 -7°C° 0 mm 3 m/S 761 mmHg 94%
    10:00 -8°C° 0 mm 4 m/S 761 mmHg 94%
    11:00 -8°C° 0 mm 4 m/S 761 mmHg 93%
    12:00 -8°C° 0 mm 4 m/S 760 mmHg 93%
    13:00 -7°C° 0 mm 5 m/S 760 mmHg 92%
    14:00 -8°C° 0 mm 5 m/S 759 mmHg 92%
    15:00 -8°C° 0 mm 5 m/S 759 mmHg 92%
    16:00 -8°C° 0 mm 5 m/S 758 mmHg 92%
    17:00 -10°C° 0 mm 5 m/S 758 mmHg 92%
    18:00 -11°C° 0 mm 5 m/S 758 mmHg 92%
    19:00 -12°C° 0 mm 5 m/S 757 mmHg 93%
    20:00 -12°C° 0 mm 5 m/S 757 mmHg 92%
    21:00 -12°C° 0 mm 6 m/S 756 mmHg 92%
    22:00 -12°C° 0 mm 6 m/S 756 mmHg 91%
    23:00 -12°C° 0 mm 6 m/S 755 mmHg 91%

    24 Februar, Montag

    Zeit Temperatur Niederschläge Wind Luftdruck Luftfeuchtigkeit
    00:00 -12°C° 0 mm 6 m/S 755 mmHg 91%
    01:00 -12°C° 0 mm 6 m/S 754 mmHg 91%
    02:00 -12°C° 0 mm 6 m/S 754 mmHg 91%
    03:00 -13°C° 0 mm 7 m/S 753 mmHg 91%
    04:00 -13°C° 0 mm 7 m/S 753 mmHg 90%
    05:00 -13°C° 0 mm 7 m/S 753 mmHg 90%
    06:00 -13°C° 0 mm 7 m/S 752 mmHg 90%
    07:00 -13°C° 0 mm 7 m/S 752 mmHg 90%
    08:00 -13°C° 0 mm 7 m/S 751 mmHg 90%
    09:00 -13°C° 0 mm 7 m/S 751 mmHg 91%
    10:00 -13°C° 0 mm 7 m/S 751 mmHg 91%
    11:00 -12°C° 0 mm 8 m/S 750 mmHg 91%
    12:00 -11°C° 0 mm 8 m/S 750 mmHg 91%
    13:00 -11°C° 0 mm 8 m/S 749 mmHg 91%
    14:00 -10°C° 0.1 mm 8 m/S 749 mmHg 91%
    15:00 -10°C° 0.1 mm 8 m/S 748 mmHg 92%
    16:00 -10°C° 0.1 mm 8 m/S 748 mmHg 92%
    17:00 -10°C° 0.2 mm 8 m/S 747 mmHg 93%
    18:00 -9°C° 0.2 mm 7 m/S 747 mmHg 93%
    19:00 -9°C° 0.2 mm 7 m/S 747 mmHg 93%
    20:00 -9°C° 0.5 mm 7 m/S 746 mmHg 93%
    21:00 -9°C° 0.5 mm 7 m/S 746 mmHg 93%
    22:00 -9°C° 0.5 mm 7 m/S 745 mmHg 93%
    23:00 -9°C° 0.4 mm 7 m/S 745 mmHg 94%
    Mehr zeigen